Time,TemperatureF,DewpointF,PressureIn,WindDirection,WindDirectionDegrees,WindSpeedMPH,WindSpeedGustMPH,Humidity,HourlyPrecipIn,Conditions,Clouds,dailyrainin,SoftwareType,DateUTC
2013-02-03 00:02:00,55.0,42.2,30.18,WNW,298,0.0,1.0,62,0.00,,OVC060,0.00,VWS V14.01,2013-02-03 08:02:00,
2013-02-03 00:07:00,55.0,42.2,30.18,WNW,298,1.0,4.0,62,0.00,,OVC060,0.00,VWS V14.01,2013-02-03 08:07:00,
2013-02-03 00:12:00,55.1,42.3,30.18,WNW,298,0.0,2.0,62,0.00,,OVC060,0.00,VWS V14.01,2013-02-03 08:12:00,
2013-02-03 00:18:00,55.1,42.3,30.18,WNW,298,0.0,1.0,62,0.00,,OVC060,0.00,VWS V14.01,2013-02-03 08:18:00,
2013-02-03 00:23:00,55.0,42.2,30.18,WNW,298,0.0,0.0,62,0.00,,OVC060,0.00,VWS V14.01,2013-02-03 08:23:00,
2013-02-03 00:28:00,54.9,42.6,30.17,WNW,298,0.0,0.0,63,0.00,,OVC060,0.00,VWS V14.01,2013-02-03 08:28:00,
2013-02-03 00:33:00,54.8,42.9,30.16,WNW,298,0.0,0.0,64,0.00,,OVC060,0.00,VWS V14.01,2013-02-03 08:33:00,
2013-02-03 00:38:00,54.6,43.1,30.17,WNW,298,0.0,0.0,65,0.00,,OVC060,0.00,VWS V14.01,2013-02-03 08:38:00,
2013-02-03 00:43:00,54.4,42.9,30.17,WNW,298,0.0,0.0,65,0.00,,OVC060,0.00,VWS V14.01,2013-02-03 08:43:00,
2013-02-03 00:48:00,54.3,42.4,30.17,WNW,298,0.0,0.0,64,0.00,,OVC060,0.00,VWS V14.01,2013-02-03 08:48:00,
2013-02-03 00:53:00,54.4,42.1,30.17,WNW,298,0.0,2.0,63,0.00,,OVC060,0.00,VWS V14.01,2013-02-03 08:53:00,
2013-02-03 00:58:00,54.4,42.1,30.16,WNW,298,0.0,0.0,63,0.00,,OVC060,0.00,VWS V14.01,2013-02-03 08:58:00,
2013-02-03 01:03:00,54.4,42.1,30.16,WNW,298,0.0,0.0,63,0.00,,OVC060,0.00,VWS V14.01,2013-02-03 09:03:00,
2013-02-03 01:08:00,54.3,42.0,30.16,WNW,298,0.0,0.0,63,0.00,,OVC060,0.00,VWS V14.01,2013-02-03 09:08:00,
2013-02-03 01:13:00,54.3,42.4,30.16,WNW,298,0.0,0.0,64,0.00,,OVC060,0.00,VWS V14.01,2013-02-03 09:13:00,
2013-02-03 01:18:00,54.1,42.6,30.16,WNW,298,0.0,0.0,65,0.00,,OVC060,0.00,VWS V14.01,2013-02-03 09:18:00,
2013-02-03 01:23:00,54.0,42.9,30.16,WNW,298,0.0,0.0,66,0.00,,OVC060,0.00,VWS V14.01,2013-02-03 09:23:00,
2013-02-03 01:28:00,53.9,43.6,30.16,WNW,298,0.0,2.0,68,0.00,,OVC060,0.00,VWS V14.01,2013-02-03 09:28:00,
2013-02-03 01:34:00,53.7,43.0,30.16,WNW,298,0.0,0.0,67,0.00,,OVC060,0.00,VWS V14.01,2013-02-03 09:34:00,
2013-02-03 01:39:00,53.6,43.7,30.16,WNW,298,0.0,0.0,69,0.00,,OVC060,0.00,VWS V14.01,2013-02-03 09:39:00,
2013-02-03 01:44:00,53.5,43.6,30.15,WNW,298,0.0,0.0,69,0.00,,OVC060,0.00,VWS V14.01,2013-02-03 09:44:00,
2013-02-03 01:49:00,53.4,43.1,30.15,WNW,298,0.0,1.0,68,0.00,,OVC060,0.00,VWS V14.01,2013-02-03 09:49:00,
2013-02-03 01:54:00,53.4,43.1,30.15,WNW,298,0.0,2.0,68,0.00,,OVC060,0.00,VWS V14.01,2013-02-03 09:54:00,
2013-02-03 01:59:00,53.4,43.1,30.15,WNW,298,0.0,0.0,68,0.00,,OVC060,0.00,VWS V14.01,2013-02-03 09:59:00,
2013-02-03 02:04:00,53.3,43.4,30.15,WNW,298,0.0,0.0,69,0.00,,OVC055,0.00,VWS V14.01,2013-02-03 10:04:00,
2013-02-03 02:09:00,53.3,43.0,30.15,WNW,298,0.0,1.0,68,0.00,,OVC055,0.00,VWS V14.01,2013-02-03 10:09:00,
2013-02-03 02:14:00,53.3,42.6,30.15,WNW,298,0.0,5.0,67,0.00,,OVC055,0.00,VWS V14.01,2013-02-03 10:14:00,
2013-02-03 02:19:00,53.4,42.7,30.15,WNW,298,0.0,2.0,67,0.00,,OVC055,0.00,VWS V14.01,2013-02-03 10:19:00,
2013-02-03 02:24:00,53.4,43.1,30.15,WNW,298,0.0,0.0,68,0.00,,OVC055,0.00,VWS V14.01,2013-02-03 10:24:00,
2013-02-03 02:29:00,53.4,43.1,30.15,WNW,298,0.0,0.0,68,0.00,,OVC055,0.00,VWS V14.01,2013-02-03 10:29:00,
2013-02-03 02:34:00,53.3,43.0,30.15,WNW,298,0.0,0.0,68,0.00,,OVC055,0.00,VWS V14.01,2013-02-03 10:34:00,
2013-02-03 02:39:00,53.2,43.3,30.15,WNW,298,0.0,0.0,69,0.00,,OVC055,0.00,VWS V14.01,2013-02-03 10:39:00,
2013-02-03 02:45:00,53.1,43.2,30.15,WNW,298,0.0,0.0,69,0.00,,OVC055,0.00,VWS V14.01,2013-02-03 10:45:00,
2013-02-03 02:50:00,53.0,43.5,30.15,WNW,298,0.0,0.0,70,0.00,,OVC055,0.00,VWS V14.01,2013-02-03 10:50:00,
2013-02-03 02:55:00,52.8,43.3,30.15,WNW,298,0.0,0.0,70,0.00,,OVC055,0.00,VWS V14.01,2013-02-03 10:55:00,
2013-02-03 03:00:00,52.6,43.5,30.15,WNW,298,0.0,0.0,71,0.00,,OVC055,0.00,VWS V14.01,2013-02-03 11:00:00,
2013-02-03 03:05:00,52.5,43.4,30.14,WNW,298,0.0,0.0,71,0.00,,OVC055,0.00,VWS V14.01,2013-02-03 11:05:00,
2013-02-03 03:10:00,52.3,43.5,30.13,WNW,298,0.0,1.0,72,0.00,,OVC055,0.00,VWS V14.01,2013-02-03 11:10:00,
2013-02-03 03:15:00,52.2,43.5,30.13,WNW,298,0.0,5.0,72,0.00,,OVC055,0.00,VWS V14.01,2013-02-03 11:15:00,
2013-02-03 03:20:00,52.1,43.4,30.12,WNW,298,1.0,4.0,72,0.00,,OVC055,0.00,VWS V14.01,2013-02-03 11:20:00,
2013-02-03 03:25:00,51.9,43.2,30.13,WNW,298,0.0,0.0,72,0.00,,OVC055,0.00,VWS V14.01,2013-02-03 11:25:00,
2013-02-03 03:30:00,51.6,42.9,30.13,WNW,298,0.0,0.0,72,0.00,,OVC055,0.00,VWS V14.01,2013-02-03 11:30:00,
2013-02-03 03:35:00,51.3,43.0,30.13,WNW,298,0.0,0.0,73,0.00,,OVC055,0.00,VWS V14.01,2013-02-03 11:35:00,
2013-02-03 03:40:00,51.0,43.0,30.13,WNW,298,0.0,0.0,74,0.00,,OVC055,0.00,VWS V14.01,2013-02-03 11:40:00,
2013-02-03 03:45:00,50.7,42.7,30.13,WNW,298,0.0,0.0,74,0.00,,OVC055,0.00,VWS V14.01,2013-02-03 11:45:00,
2013-02-03 03:50:00,50.4,42.8,30.13,WNW,298,0.0,0.0,75,0.00,,OVC055,0.00,VWS V14.01,2013-02-03 11:50:00,
2013-02-03 03:56:00,50.0,42.4,30.13,WNW,298,0.0,0.0,75,0.00,,OVC055,0.00,VWS V14.01,2013-02-03 11:56:00,
2013-02-03 04:01:00,49.6,42.0,30.13,WNW,298,0.0,0.0,75,0.00,,BKN070,0.00,VWS V14.01,2013-02-03 12:01:00,
2013-02-03 04:06:00,49.3,42.1,30.13,WNW,298,0.0,0.0,76,0.00,,BKN070,0.00,VWS V14.01,2013-02-03 12:06:00,
2013-02-03 04:11:00,48.9,41.7,30.13,WNW,298,0.0,0.0,76,0.00,,BKN070,0.00,VWS V14.01,2013-02-03 12:11:00,
2013-02-03 04:16:00,48.6,41.7,30.13,WNW,298,0.0,0.0,77,0.00,,BKN070,0.00,VWS V14.01,2013-02-03 12:16:00,
2013-02-03 04:21:00,48.2,41.3,30.13,WNW,298,0.0,0.0,77,0.00,,BKN070,0.00,VWS V14.01,2013-02-03 12:21:00,
2013-02-03 04:26:00,47.9,41.4,30.13,WNW,298,0.0,0.0,78,0.00,,BKN070,0.00,VWS V14.01,2013-02-03 12:26:00,
2013-02-03 04:31:00,47.6,41.4,30.13,WNW,298,0.0,0.0,79,0.00,,BKN070,0.00,VWS V14.01,2013-02-03 12:31:00,
2013-02-03 04:36:00,47.3,41.1,30.12,WNW,298,0.0,0.0,79,0.00,,BKN070,0.00,VWS V14.01,2013-02-03 12:36:00,
2013-02-03 04:41:00,47.1,40.9,30.12,WNW,298,0.0,0.0,79,0.00,,BKN070,0.00,VWS V14.01,2013-02-03 12:41:00,
2013-02-03 04:46:00,46.9,41.1,30.12,WNW,298,0.0,0.0,80,0.00,,BKN070,0.00,VWS V14.01,2013-02-03 12:46:00,
2013-02-03 04:51:00,46.6,40.8,30.12,WNW,298,0.0,0.0,80,0.00,,BKN070,0.00,VWS V14.01,2013-02-03 12:51:00,
2013-02-03 04:56:00,46.3,40.5,30.12,WNW,298,0.0,0.0,80,0.00,,BKN070,0.00,VWS V14.01,2013-02-03 12:56:00,
2013-02-03 05:01:00,46.1,40.3,30.12,WNW,298,0.0,0.0,80,0.00,,SCT100,0.00,VWS V14.01,2013-02-03 13:01:00,
2013-02-03 05:07:00,45.8,40.0,30.11,WNW,298,0.0,0.0,80,0.00,,SCT100,0.00,VWS V14.01,2013-02-03 13:07:00,
2013-02-03 05:12:00,45.6,40.1,30.11,WNW,298,0.0,0.0,81,0.00,,SCT100,0.00,VWS V14.01,2013-02-03 13:12:00,
2013-02-03 05:17:00,45.3,39.8,30.11,WNW,298,0.0,0.0,81,0.00,,SCT100,0.00,VWS V14.01,2013-02-03 13:17:00,
2013-02-03 05:22:00,45.1,39.6,30.11,WNW,298,0.0,0.0,81,0.00,,SCT100,0.00,VWS V14.01,2013-02-03 13:22:00,
2013-02-03 05:27:00,44.9,39.4,30.11,WNW,298,0.0,0.0,81,0.00,,SCT100,0.00,VWS V14.01,2013-02-03 13:27:00,
2013-02-03 05:32:00,44.7,39.5,30.11,WNW,298,0.0,0.0,82,0.00,,SCT100,0.00,VWS V14.01,2013-02-03 13:32:00,
2013-02-03 05:37:00,44.5,39.7,30.12,WNW,298,0.0,0.0,83,0.00,,SCT100,0.00,VWS V14.01,2013-02-03 13:37:00,
2013-02-03 05:42:00,44.4,39.9,30.12,WNW,298,0.0,0.0,84,0.00,,SCT100,0.00,VWS V14.01,2013-02-03 13:42:00,
2013-02-03 05:47:00,44.2,39.7,30.12,WNW,298,0.0,0.0,84,0.00,,SCT100,0.00,VWS V14.01,2013-02-03 13:47:00,
2013-02-03 05:52:00,44.1,39.6,30.12,WNW,298,0.0,0.0,84,0.00,,SCT100,0.00,VWS V14.01,2013-02-03 13:52:00,
2013-02-03 05:57:00,44.0,39.5,30.12,WNW,298,0.0,0.0,84,0.00,,SCT100,0.00,VWS V14.01,2013-02-03 13:57:00,
2013-02-03 06:02:00,44.0,39.8,30.11,WNW,298,0.0,0.0,85,0.00,,CLR,0.00,VWS V14.01,2013-02-03 14:02:00,
2013-02-03 06:08:00,44.0,39.5,30.11,WNW,298,0.0,0.0,84,0.00,,CLR,0.00,VWS V14.01,2013-02-03 14:08:00,
2013-02-03 06:13:00,43.9,39.7,30.12,WNW,298,0.0,0.0,85,0.00,,CLR,0.00,VWS V14.01,2013-02-03 14:13:00,
2013-02-03 06:18:00,43.8,39.6,30.12,WNW,298,0.0,0.0,85,0.00,,CLR,0.00,VWS V14.01,2013-02-03 14:18:00,
2013-02-03 06:23:00,43.7,39.5,30.11,WNW,298,0.0,1.0,85,0.00,,CLR,0.00,VWS V14.01,2013-02-03 14:23:00,
2013-02-03 06:28:00,43.7,39.5,30.11,WNW,298,0.0,1.0,85,0.00,,CLR,0.00,VWS V14.01,2013-02-03 14:28:00,
2013-02-03 06:33:00,43.6,39.7,30.12,WNW,298,0.0,0.0,86,0.00,,CLR,0.00,VWS V14.01,2013-02-03 14:33:00,
2013-02-03 06:38:00,43.6,39.4,30.12,WNW,298,0.0,0.0,85,0.00,,CLR,0.00,VWS V14.01,2013-02-03 14:38:00,
2013-02-03 06:43:00,43.5,39.3,30.11,WNW,298,0.0,0.0,85,0.00,,CLR,0.00,VWS V14.01,2013-02-03 14:43:00,
2013-02-03 06:48:00,43.4,39.2,30.11,WNW,298,4.0,4.0,85,0.00,,CLR,0.00,VWS V14.01,2013-02-03 14:48:00,
2013-02-03 06:53:00,43.2,39.0,30.11,WNW,298,0.0,0.0,85,0.00,,CLR,0.00,VWS V14.01,2013-02-03 14:53:00,
2013-02-03 06:58:00,43.1,38.9,30.11,WNW,298,0.0,0.0,85,0.00,,CLR,0.00,VWS V14.01,2013-02-03 14:58:00,
2013-02-03 07:03:00,43.0,39.1,30.11,WNW,298,0.0,0.0,86,0.00,,CLR,0.00,VWS V14.01,2013-02-03 15:03:00,
2013-02-03 07:08:00,42.9,39.0,30.11,WNW,298,0.0,0.0,86,0.00,,CLR,0.00,VWS V14.01,2013-02-03 15:08:00,
2013-02-03 07:14:00,43.0,39.4,30.12,WNW,298,0.0,0.0,87,0.00,,CLR,0.00,VWS V14.01,2013-02-03 15:14:00,
2013-02-03 07:19:00,43.1,39.5,30.11,WNW,298,0.0,0.0,87,0.00,,CLR,0.00,VWS V14.01,2013-02-03 15:19:00,
2013-02-03 07:24:00,43.2,39.6,30.11,WNW,298,0.0,0.0,87,0.00,,CLR,0.00,VWS V14.01,2013-02-03 15:24:00,
2013-02-03 07:29:00,43.4,40.1,30.12,WNW,298,0.0,0.0,88,0.00,,CLR,0.00,VWS V14.01,2013-02-03 15:29:00,
2013-02-03 07:34:00,43.6,40.0,30.12,WNW,298,0.0,0.0,87,0.00,,CLR,0.00,VWS V14.01,2013-02-03 15:34:00,
2013-02-03 07:39:00,43.8,40.5,30.12,WNW,298,0.0,0.0,88,0.00,,CLR,0.00,VWS V14.01,2013-02-03 15:39:00,
2013-02-03 07:44:00,44.2,40.9,30.12,WNW,298,0.0,0.0,88,0.00,,CLR,0.00,VWS V14.01,2013-02-03 15:44:00,
2013-02-03 07:49:00,44.7,41.4,30.12,WNW,298,0.0,0.0,88,0.00,,CLR,0.00,VWS V14.01,2013-02-03 15:49:00,
2013-02-03 07:54:00,45.4,42.3,30.12,WNW,298,0.0,0.0,89,0.00,,CLR,0.00,VWS V14.01,2013-02-03 15:54:00,
2013-02-03 07:59:00,46.1,42.8,30.11,WNW,298,0.0,0.0,88,0.00,,CLR,0.00,VWS V14.01,2013-02-03 15:59:00,
2013-02-03 08:04:00,47.0,43.6,30.12,WNW,298,0.0,0.0,88,0.00,,CLR,0.00,VWS V14.01,2013-02-03 16:04:00,
2013-02-03 08:09:00,48.2,44.5,30.11,WNW,298,0.0,0.0,87,0.00,,CLR,0.00,VWS V14.01,2013-02-03 16:09:00,
2013-02-03 08:14:00,49.2,44.9,30.11,WNW,298,0.0,0.0,85,0.00,,CLR,0.00,VWS V14.01,2013-02-03 16:14:00,
2013-02-03 08:19:00,50.3,45.3,30.11,WNW,298,0.0,0.0,83,0.00,,CLR,0.00,VWS V14.01,2013-02-03 16:19:00,
2013-02-03 08:24:00,51.3,45.0,30.11,WNW,298,2.0,2.0,79,0.00,,CLR,0.00,VWS V14.01,2013-02-03 16:24:00,
2013-02-03 08:30:00,52.1,44.4,30.11,WNW,298,0.0,1.0,75,0.00,,CLR,0.00,VWS V14.01,2013-02-03 16:30:00,
2013-02-03 08:35:00,52.8,44.0,30.11,WNW,298,0.0,0.0,72,0.00,,CLR,0.00,VWS V14.01,2013-02-03 16:35:00,
2013-02-03 08:40:00,53.3,43.8,30.12,WNW,298,0.0,0.0,70,0.00,,CLR,0.00,VWS V14.01,2013-02-03 16:40:00,
2013-02-03 08:45:00,53.8,43.1,30.11,WNW,298,2.0,4.0,67,0.00,,CLR,0.00,VWS V14.01,2013-02-03 16:45:00,
2013-02-03 08:50:00,54.3,43.6,30.12,WNW,298,0.0,0.0,67,0.00,,CLR,0.00,VWS V14.01,2013-02-03 16:50:00,
2013-02-03 08:55:00,54.8,43.7,30.12,WNW,298,0.0,0.0,66,0.00,,CLR,0.00,VWS V14.01,2013-02-03 16:55:00,
2013-02-03 09:00:00,55.1,44.0,30.12,WNW,298,0.0,0.0,66,0.00,,CLR,0.00,VWS V14.01,2013-02-03 17:00:00,
2013-02-03 09:05:00,55.4,42.6,30.12,WNW,298,0.0,0.0,62,0.00,,CLR,0.00,VWS V14.01,2013-02-03 17:05:00,
2013-02-03 09:10:00,55.6,42.8,30.12,WNW,298,0.0,0.0,62,0.00,,CLR,0.00,VWS V14.01,2013-02-03 17:10:00,
2013-02-03 09:15:00,55.8,42.6,30.12,WNW,298,2.0,2.0,61,0.00,,CLR,0.00,VWS V14.01,2013-02-03 17:15:00,
2013-02-03 09:20:00,55.7,42.9,30.12,WNW,298,0.0,0.0,62,0.00,,CLR,0.00,VWS V14.01,2013-02-03 17:20:00,
2013-02-03 09:25:00,56.0,43.2,30.11,WNW,298,0.0,1.0,62,0.00,,CLR,0.00,VWS V14.01,2013-02-03 17:25:00,
2013-02-03 09:30:00,56.3,43.0,30.12,WNW,298,0.0,0.0,61,0.00,,CLR,0.00,VWS V14.01,2013-02-03 17:30:00,
2013-02-03 09:35:00,56.3,42.2,30.12,WNW,298,2.0,2.0,59,0.00,,CLR,0.00,VWS V14.01,2013-02-03 17:35:00,
2013-02-03 09:40:00,56.4,43.1,30.12,WNW,298,4.0,4.0,61,0.00,,CLR,0.00,VWS V14.01,2013-02-03 17:40:00,
2013-02-03 09:46:00,56.6,43.3,30.12,WNW,298,0.0,0.0,61,0.00,,CLR,0.00,VWS V14.01,2013-02-03 17:46:00,
2013-02-03 09:51:00,56.7,43.0,30.12,WNW,298,4.0,4.0,60,0.00,,CLR,0.00,VWS V14.01,2013-02-03 17:51:00,
2013-02-03 09:56:00,57.1,42.5,30.12,WNW,298,0.0,0.0,58,0.00,,CLR,0.00,VWS V14.01,2013-02-03 17:56:00,
2013-02-03 10:01:00,57.3,42.7,30.12,WNW,298,0.0,1.0,58,0.00,,CLR,0.00,VWS V14.01,2013-02-03 18:01:00,
2013-02-03 10:06:00,57.7,43.5,30.13,WNW,298,0.0,1.0,59,0.00,,CLR,0.00,VWS V14.01,2013-02-03 18:06:00,
2013-02-03 10:11:00,58.0,43.8,30.12,WNW,298,0.0,1.0,59,0.00,,CLR,0.00,VWS V14.01,2013-02-03 18:11:00,
2013-02-03 10:16:00,58.4,43.7,30.13,WNW,298,0.0,4.0,58,0.00,,CLR,0.00,VWS V14.01,2013-02-03 18:16:00,
2013-02-03 10:21:00,58.7,44.4,30.13,WNW,298,0.0,1.0,59,0.00,,CLR,0.00,VWS V14.01,2013-02-03 18:21:00,
2013-02-03 10:26:00,59.1,43.4,30.13,WNW,298,0.0,0.0,56,0.00,,CLR,0.00,VWS V14.01,2013-02-03 18:26:00,
2013-02-03 10:31:00,59.6,44.4,30.13,WNW,298,0.0,0.0,57,0.00,,CLR,0.00,VWS V14.01,2013-02-03 18:31:00,
2013-02-03 10:36:00,60.1,43.4,30.12,WNW,300,0.0,4.0,54,0.00,,CLR,0.00,VWS V14.01,2013-02-03 18:36:00,
2013-02-03 10:41:00,60.4,42.7,30.13,WNW,300,0.0,1.0,52,0.00,,CLR,0.00,VWS V14.01,2013-02-03 18:41:00,
2013-02-03 10:46:00,60.5,43.3,30.13,WNW,300,0.0,5.0,53,0.00,,CLR,0.00,VWS V14.01,2013-02-03 18:46:00,
2013-02-03 10:51:00,60.8,42.6,30.12,NNW,346,5.0,6.0,51,0.00,,CLR,0.00,VWS V14.01,2013-02-03 18:51:00,
2013-02-03 10:56:00,61.1,42.3,30.12,NNW,346,4.0,4.0,50,0.00,,CLR,0.00,VWS V14.01,2013-02-03 18:56:00,
2013-02-03 11:02:00,61.5,42.7,30.12,NNW,347,0.0,5.0,50,0.00,,CLR,0.00,VWS V14.01,2013-02-03 19:02:00,
2013-02-03 11:07:00,61.9,42.5,30.11,North,5,2.0,4.0,49,0.00,,CLR,0.00,VWS V14.01,2013-02-03 19:07:00,
2013-02-03 11:12:00,62.1,41.7,30.11,NE,48,3.0,5.0,47,0.00,,CLR,0.00,VWS V14.01,2013-02-03 19:12:00,
2013-02-03 11:17:00,62.1,42.2,30.11,NE,48,0.0,3.0,48,0.00,,CLR,0.00,VWS V14.01,2013-02-03 19:17:00,
2013-02-03 11:22:00,62.5,41.5,30.11,NE,48,1.0,4.0,46,0.00,,CLR,0.00,VWS V14.01,2013-02-03 19:22:00,
2013-02-03 11:27:00,62.8,41.2,30.11,NE,42,3.0,6.0,45,0.00,,CLR,0.00,VWS V14.01,2013-02-03 19:27:00,
2013-02-03 11:32:00,63.1,40.9,30.10,NE,46,3.0,4.0,44,0.00,,CLR,0.00,VWS V14.01,2013-02-03 19:32:00,
2013-02-03 11:37:00,63.2,41.0,30.10,NE,54,0.0,3.0,44,0.00,,CLR,0.00,VWS V14.01,2013-02-03 19:37:00,
2013-02-03 11:42:00,63.4,41.1,30.09,NE,54,2.0,2.0,44,0.00,,CLR,0.00,VWS V14.01,2013-02-03 19:42:00,
2013-02-03 11:47:00,63.8,40.3,30.09,NE,54,2.0,2.0,42,0.00,,CLR,0.00,VWS V14.01,2013-02-03 19:47:00,
2013-02-03 11:52:00,63.9,39.1,30.09,ENE,57,3.0,6.0,40,0.00,,CLR,0.00,VWS V14.01,2013-02-03 19:52:00,
2013-02-03 11:57:00,63.9,40.4,30.08,ENE,57,0.0,3.0,42,0.00,,CLR,0.00,VWS V14.01,2013-02-03 19:57:00,
2013-02-03 12:02:00,64.0,39.8,30.08,ENE,57,0.0,4.0,41,0.00,,CLR,0.00,VWS V14.01,2013-02-03 20:02:00,
2013-02-03 12:07:00,64.2,40.0,30.08,ENE,66,3.0,6.0,41,0.00,,CLR,0.00,VWS V14.01,2013-02-03 20:07:00,
2013-02-03 12:13:00,64.3,40.1,30.07,ENE,69,3.0,8.0,41,0.00,,CLR,0.00,VWS V14.01,2013-02-03 20:13:00,
2013-02-03 12:18:00,64.6,39.8,30.07,ENE,67,3.0,7.0,40,0.00,,CLR,0.00,VWS V14.01,2013-02-03 20:18:00,
2013-02-03 12:23:00,64.6,39.1,30.07,ENE,63,0.0,6.0,39,0.00,,CLR,0.00,VWS V14.01,2013-02-03 20:23:00,
2013-02-03 12:28:00,64.8,38.6,30.06,ENE,63,0.0,0.0,38,0.00,,CLR,0.00,VWS V14.01,2013-02-03 20:28:00,
2013-02-03 12:33:00,64.9,39.4,30.06,ENE,65,1.0,6.0,39,0.00,,CLR,0.00,VWS V14.01,2013-02-03 20:33:00,
2013-02-03 12:38:00,64.9,38.0,30.05,ENE,76,0.0,8.0,37,0.00,,CLR,0.00,VWS V14.01,2013-02-03 20:38:00,
2013-02-03 12:43:00,64.8,38.6,30.05,ENE,76,2.0,4.0,38,0.00,,CLR,0.00,VWS V14.01,2013-02-03 20:43:00,